Showing default

GHGSAT-C1, 46278

Orbit data source: Space-Track

GHGSAT-C1, 46278 is a payload satellite owned by GHG (CA) in SSO that was launched on Thu, 03 Sep 2020 UTC via a VEGA launch vehicle from the French Guiana (FRGUI). Payload-class satellites include a variety of spacecraft equipped with specific instruments for various scientific and technological missions. These include communications satellites like Starlink; space stations such as the ISS; scientific satellites like the Hubble; Earth observation satellites from companies like Planet Labs, Umbra, and HawkEye 360; GPS; miniature CubeSats for education and research; and military/defense satellites.

Loading next visibility...
Identifier
46278, 2020-061G
Orbit
SSO
Country
Flag of CACA
Related business
Manufacturer
UTIAS-SFL
Mission
Operational Commercial Earth Obs Sci
Bus & Motor
NEMO-V1, Unknown motor
Mass
15 kg wet, 15 kg dry
Launch date (UTC)
2020-09-03 (6 years ago)
Launch vehicle
VEGA
Launch site
French Guiana (FRGUI)
Object type
Payload
Rocket body
Debris
Shape & HBR
Box, 1.0 m
Radar Cross Section
0.100 m², Medium (>0.1 m² and < 1m²)

Expand to show TLE details & history
Last TLE update: 10 hours ago

TLE from 10 hours ago
0 GHGSAT-C1
1 46278U 20061G   26120.28628258  .00036164  00000-0  32709-3 0  9992
2 46278  97.2118 203.9598 0001961 164.9207 195.2113 15.68015240315967
Epoch: 2026-04-30T06:52Z
TLE epoch observation values (Epoch: 2026-04-30T06:52:14.814Z)
Latitude
-0.00009°
Longitude
-117.33698°
Altitude
369.018 km
Speed
7.687 km/s
True Right ascension
13h 35m 50s
True Declination
0° 00' 00"
Sunlit
Object was in full shadow at epoch
Visualization orbit readout
Latitude
Unknown
Longitude
Unknown
Altitude
Unknown
Speed
Unknown
Apparent Right ascension
Unknown
Apparent Declination
Unknown
Sunlit
N/A
Visualization observer readout
Local Sidereal Time
23:58:11
Azimuth
Unknown
Elevation
Unknown
Doppler factor
Unknown
Orbital elements
Apogee altitude
362.796 km
Perigee altitude
360.153 km
Semi-major axis
6,739.612 km
Eccentricity
0.0002
Inclination
97.2118°
RAAN
203.9598°
Arg. of periapsis
164.9207°
True anomaly
195.20541°
Mean anomaly
195.2113°
Eccentric anomaly
195.20835°
Mean motion
3.92275 °/min
Orbital period
91.77 mins
BSTAR
0.00032709
Loading maneuver chart data...
Computing Atmospheric mass density...
Loading historical data...
Loading historical data...
Loading historical data...
Loading historical data...
Loading historical data...
Loading historical data...
Loading historical data...

Documentation

Showing up to 5 results
|